Location: Ellerstadt
(49.4644°N, 8.2615°E)
Time: 03:42:05
(UTC+00:00)

Cosmos 1470 Rocket - Pass Details

Date: 03 March 2021
Orbit: 603 x 634 km, 82.5° (Epoch: 16 April)

Event Time Altitude Azimuth Distance (km) Brightness Sun altitude
Rises 18:35:45 0° 192° (SSW) 2,918 7.1 -14.2°
Reaches altitude 10° 18:37:59 10° 194° (SSW) 2,013 6.3 -14.6°
Maximum altitude 18:42:28 76° 281° (W) 657 3.8 -15.3°
Drops below altitude 10° 18:46:56 10° 7° (N) 2,015 6.2 -16.0°
Sets 18:49:11 0° 9° (N) 2,922 7.0 -16.3°
